Time,TemperatureF,DewpointF,PressureIn,WindDirection,WindDirectionDegrees,WindSpeedMPH,WindSpeedGustMPH,Humidity,HourlyPrecipIn,Conditions,Clouds,dailyrainin,SoftwareType,DateUTC
2013-10-11 00:01:00,49.8,40.8,30.09,SW,215,0.0,0.0,71,0.00,,---,0.00,VWS V14.01,2013-10-11 04:01:00,
2013-10-11 00:02:00,49.8,40.8,30.09,SW,215,0.0,0.0,71,0.00,,---,0.00,VWS V14.01,2013-10-11 04:02:00,
2013-10-11 00:03:00,49.8,40.8,30.09,SW,215,0.0,0.0,71,0.00,,---,0.00,VWS V14.01,2013-10-11 04:03:00,
2013-10-11 00:04:00,49.8,40.8,30.09,SW,215,0.0,0.0,71,0.00,,---,0.00,VWS V14.01,2013-10-11 04:04:00,
2013-10-11 00:05:00,49.6,40.6,30.09,NW,305,0.0,0.0,71,0.00,,---,0.00,VWS V14.01,2013-10-11 04:05:00,
2013-10-11 00:10:00,49.6,40.9,30.09,NW,305,0.0,0.0,72,0.00,,---,0.00,VWS V14.01,2013-10-11 04:10:00,
2013-10-11 00:15:00,49.6,40.9,30.09,NW,305,0.0,0.0,72,0.00,,---,0.00,VWS V14.01,2013-10-11 04:15:00,
2013-10-11 00:21:00,49.4,41.1,30.09,NW,305,0.0,0.0,73,0.00,,---,0.00,VWS V14.01,2013-10-11 04:21:00,
2013-10-11 00:26:00,49.0,40.8,30.06,NW,305,0.0,0.0,73,0.00,,---,0.00,VWS V14.01,2013-10-11 04:26:00,
2013-10-11 00:31:00,48.9,40.6,30.06,NW,305,0.0,0.0,73,0.00,,---,0.00,VWS V14.01,2013-10-11 04:31:00,
2013-10-11 00:36:00,48.9,40.2,30.06,NW,305,0.0,0.0,72,0.00,,---,0.00,VWS V14.01,2013-10-11 04:36:00,
2013-10-11 00:41:00,48.5,40.2,30.06,NW,305,0.0,0.0,73,0.00,,---,0.00,VWS V14.01,2013-10-11 04:41:00,
2013-10-11 00:46:00,48.5,40.2,30.06,NW,305,0.0,0.0,73,0.00,,---,0.00,VWS V14.01,2013-10-11 04:46:00,
2013-10-11 00:51:00,48.3,40.4,30.06,NW,305,0.0,0.0,74,0.00,,---,0.00,VWS V14.01,2013-10-11 04:51:00,
2013-10-11 00:56:00,48.3,40.4,30.06,NW,305,0.0,0.0,74,0.00,,---,0.00,VWS V14.01,2013-10-11 04:56:00,
2013-10-11 01:01:00,48.0,40.1,30.06,NW,305,0.0,0.0,74,0.00,,---,0.00,VWS V14.01,2013-10-11 05:01:00,
2013-10-11 01:06:00,48.1,40.3,30.06,NW,305,0.0,0.0,74,0.00,,---,0.00,VWS V14.01,2013-10-11 05:06:00,
2013-10-11 01:11:00,48.0,40.1,30.06,NW,305,0.0,0.0,74,0.00,,---,0.00,VWS V14.01,2013-10-11 05:11:00,
2013-10-11 01:16:00,47.8,39.9,30.06,NW,305,0.0,0.0,74,0.00,,---,0.00,VWS V14.01,2013-10-11 05:16:00,
2013-10-11 01:21:00,47.6,39.7,30.06,NW,305,0.0,0.0,74,0.00,,---,0.00,VWS V14.01,2013-10-11 05:21:00,
2013-10-11 01:26:00,47.8,39.6,30.06,NW,305,0.0,0.0,73,0.00,,---,0.00,VWS V14.01,2013-10-11 05:26:00,
2013-10-11 01:31:00,47.6,39.4,30.06,NW,305,0.0,0.0,73,0.00,,---,0.00,VWS V14.01,2013-10-11 05:31:00,
2013-10-11 01:36:00,47.4,39.2,30.06,NW,305,0.0,0.0,73,0.00,,---,0.00,VWS V14.01,2013-10-11 05:36:00,
2013-10-11 01:41:00,47.4,39.6,30.06,NW,305,0.0,0.0,74,0.00,,---,0.00,VWS V14.01,2013-10-11 05:41:00,
2013-10-11 01:46:00,47.1,38.9,30.06,NW,305,0.0,0.0,73,0.00,,---,0.00,VWS V14.01,2013-10-11 05:46:00,
2013-10-11 01:51:00,46.9,38.7,30.06,NW,305,0.0,0.0,73,0.00,,---,0.00,VWS V14.01,2013-10-11 05:51:00,
2013-10-11 01:56:00,46.5,38.3,30.06,NW,305,0.0,0.0,73,0.00,,---,0.00,VWS V14.01,2013-10-11 05:56:00,
2013-10-11 02:01:00,46.5,38.7,30.06,NW,305,0.0,0.0,74,0.00,,---,0.00,VWS V14.01,2013-10-11 06:01:00,
2013-10-11 02:06:00,46.5,38.7,30.06,NW,305,0.0,0.0,74,0.00,,---,0.00,VWS V14.01,2013-10-11 06:06:00,
2013-10-11 02:11:00,46.3,38.5,30.09,NW,305,0.0,0.0,74,0.00,,---,0.00,VWS V14.01,2013-10-11 06:11:00,
2013-10-11 02:16:00,46.3,38.5,30.09,NW,305,0.0,0.0,74,0.00,,---,0.00,VWS V14.01,2013-10-11 06:16:00,
2013-10-11 02:21:00,46.2,38.3,30.09,NW,305,0.0,0.0,74,0.00,,---,0.00,VWS V14.01,2013-10-11 06:21:00,
2013-10-11 02:26:00,46.2,38.3,30.06,NW,305,0.0,0.0,74,0.00,,---,0.00,VWS V14.01,2013-10-11 06:26:00,
2013-10-11 02:31:00,46.0,38.2,30.06,NW,305,0.0,0.0,74,0.00,,---,0.00,VWS V14.01,2013-10-11 06:31:00,
2013-10-11 02:36:00,45.8,38.0,30.06,NW,305,0.0,0.0,74,0.00,,---,0.00,VWS V14.01,2013-10-11 06:36:00,
2013-10-11 02:41:00,45.6,38.2,30.06,NW,305,0.0,0.0,75,0.00,,---,0.00,VWS V14.01,2013-10-11 06:41:00,
2013-10-11 02:46:00,45.4,38.3,30.06,NW,305,0.0,0.0,76,0.00,,---,0.00,VWS V14.01,2013-10-11 06:46:00,
2013-10-11 02:51:00,45.3,38.2,30.06,NW,305,0.0,0.0,76,0.00,,---,0.00,VWS V14.01,2013-10-11 06:51:00,
2013-10-11 02:56:00,45.1,38.0,30.06,NW,305,0.0,0.0,76,0.00,,---,0.00,VWS V14.01,2013-10-11 06:56:00,
2013-10-11 03:01:00,45.1,38.0,30.06,NW,305,0.0,0.0,76,0.00,,---,0.00,VWS V14.01,2013-10-11 07:01:00,
2013-10-11 03:06:00,45.1,38.0,30.06,NW,305,0.0,0.0,76,0.00,,---,0.00,VWS V14.01,2013-10-11 07:06:00,
2013-10-11 03:11:00,45.3,38.2,30.06,NW,305,0.0,0.0,76,0.00,,---,0.00,VWS V14.01,2013-10-11 07:11:00,
2013-10-11 03:16:00,45.1,38.0,30.06,NW,305,0.0,0.0,76,0.00,,---,0.00,VWS V14.01,2013-10-11 07:16:00,
2013-10-11 03:22:00,44.7,37.3,30.06,NW,305,0.0,0.0,75,0.00,,---,0.00,VWS V14.01,2013-10-11 07:22:00,
2013-10-11 03:27:00,44.5,37.5,30.06,NW,305,0.0,0.0,76,0.00,,---,0.00,VWS V14.01,2013-10-11 07:27:00,
2013-10-11 03:32:00,44.5,37.5,30.06,NW,305,0.0,0.0,76,0.00,,---,0.00,VWS V14.01,2013-10-11 07:32:00,
2013-10-11 03:37:00,44.2,37.4,30.06,NW,305,0.0,0.0,77,0.00,,---,0.00,VWS V14.01,2013-10-11 07:37:00,
2013-10-11 03:42:00,44.4,37.6,30.06,NW,305,0.0,0.0,77,0.00,,---,0.00,VWS V14.01,2013-10-11 07:42:00,
2013-10-11 03:47:00,44.2,37.4,30.06,NW,305,0.0,0.0,77,0.00,,---,0.00,VWS V14.01,2013-10-11 07:47:00,
2013-10-11 03:52:00,44.2,37.4,30.06,NW,305,0.0,0.0,77,0.00,,---,0.00,VWS V14.01,2013-10-11 07:52:00,
2013-10-11 03:57:00,44.2,37.1,30.06,NW,305,0.0,0.0,76,0.00,,---,0.00,VWS V14.01,2013-10-11 07:57:00,
2013-10-11 04:02:00,44.0,36.9,30.06,NW,305,0.0,0.0,76,0.00,,---,0.00,VWS V14.01,2013-10-11 08:02:00,
2013-10-11 04:07:00,43.8,36.8,30.06,NW,305,0.0,0.0,76,0.00,,---,0.00,VWS V14.01,2013-10-11 08:07:00,
2013-10-11 04:12:00,43.6,36.9,30.06,NW,305,0.0,0.0,77,0.00,,---,0.00,VWS V14.01,2013-10-11 08:12:00,
2013-10-11 04:18:00,43.6,36.9,30.06,NW,305,0.0,0.0,77,0.00,,---,0.00,VWS V14.01,2013-10-11 08:18:00,
2013-10-11 04:23:00,43.6,36.9,30.06,NW,305,0.0,0.0,77,0.00,,---,0.00,VWS V14.01,2013-10-11 08:23:00,
2013-10-11 04:28:00,43.5,36.7,30.06,NW,305,0.0,0.0,77,0.00,,---,0.00,VWS V14.01,2013-10-11 08:28:00,
2013-10-11 04:33:00,43.5,36.7,30.06,NW,305,0.0,0.0,77,0.00,,---,0.00,VWS V14.01,2013-10-11 08:33:00,
2013-10-11 04:38:00,43.5,36.7,30.06,NW,305,0.0,0.0,77,0.00,,---,0.00,VWS V14.01,2013-10-11 08:38:00,
2013-10-11 04:43:00,43.5,36.7,30.06,NW,305,0.0,0.0,77,0.00,,---,0.00,VWS V14.01,2013-10-11 08:43:00,
2013-10-11 04:48:00,43.3,36.9,30.06,NW,305,0.0,0.0,78,0.00,,---,0.00,VWS V14.01,2013-10-11 08:48:00,
2013-10-11 04:53:00,43.1,37.0,30.06,NW,305,0.0,0.0,79,0.00,,---,0.00,VWS V14.01,2013-10-11 08:53:00,
2013-10-11 04:58:00,43.3,36.9,30.06,NW,305,0.0,0.0,78,0.00,,---,0.00,VWS V14.01,2013-10-11 08:58:00,
2013-10-11 05:03:00,43.1,36.7,30.06,NW,305,0.0,0.0,78,0.00,,---,0.00,VWS V14.01,2013-10-11 09:03:00,
2013-10-11 05:08:00,43.1,36.7,30.09,NW,305,0.0,0.0,78,0.00,,---,0.00,VWS V14.01,2013-10-11 09:08:00,
2013-10-11 05:13:00,42.9,36.5,30.09,NW,305,0.0,0.0,78,0.00,,---,0.00,VWS V14.01,2013-10-11 09:13:00,
2013-10-11 05:18:00,42.9,36.5,30.09,NW,305,0.0,0.0,78,0.00,,---,0.00,VWS V14.01,2013-10-11 09:18:00,
2013-10-11 05:23:00,42.7,36.4,30.09,NW,305,0.0,0.0,78,0.00,,---,0.00,VWS V14.01,2013-10-11 09:23:00,
2013-10-11 05:28:00,42.7,36.4,30.09,NW,305,0.0,0.0,78,0.00,,---,0.00,VWS V14.01,2013-10-11 09:28:00,
2013-10-11 05:33:00,42.7,36.7,30.09,NW,305,0.0,0.0,79,0.00,,---,0.00,VWS V14.01,2013-10-11 09:33:00,
2013-10-11 05:38:00,42.4,36.3,30.09,NW,305,0.0,0.0,79,0.00,,---,0.00,VWS V14.01,2013-10-11 09:38:00,
2013-10-11 05:43:00,42.6,36.2,30.09,NW,305,0.0,0.0,78,0.00,,---,0.00,VWS V14.01,2013-10-11 09:43:00,
2013-10-11 05:48:00,42.6,36.5,30.09,NW,305,0.0,0.0,79,0.00,,---,0.00,VWS V14.01,2013-10-11 09:48:00,
2013-10-11 05:53:00,42.2,36.2,30.09,NW,305,0.0,0.0,79,0.00,,---,0.00,VWS V14.01,2013-10-11 09:53:00,
2013-10-11 05:58:00,42.2,36.2,30.09,NW,305,0.0,0.0,79,0.00,,---,0.00,VWS V14.01,2013-10-11 09:58:00,
2013-10-11 06:03:00,42.2,36.5,30.09,NW,305,0.0,0.0,80,0.00,,---,0.00,VWS V14.01,2013-10-11 10:03:00,
2013-10-11 06:08:00,42.2,36.5,30.09,NW,305,0.0,0.0,80,0.00,,---,0.00,VWS V14.01,2013-10-11 10:08:00,
2013-10-11 06:13:00,42.2,36.2,30.09,NW,305,0.0,0.0,79,0.00,,---,0.00,VWS V14.01,2013-10-11 10:13:00,
2013-10-11 06:18:00,42.0,36.3,30.09,NW,305,0.0,0.0,80,0.00,,---,0.00,VWS V14.01,2013-10-11 10:18:00,
2013-10-11 06:23:00,41.7,36.0,30.09,NW,305,0.0,0.0,80,0.00,,---,0.00,VWS V14.01,2013-10-11 10:23:00,
2013-10-11 06:28:00,41.7,36.0,30.09,NW,305,0.0,0.0,80,0.00,,---,0.00,VWS V14.01,2013-10-11 10:28:00,
2013-10-11 06:34:00,41.8,35.8,30.09,NW,305,0.0,0.0,79,0.00,,---,0.00,VWS V14.01,2013-10-11 10:34:00,
2013-10-11 06:39:00,41.8,36.1,30.09,NW,305,0.0,0.0,80,0.00,,---,0.00,VWS V14.01,2013-10-11 10:39:00,
2013-10-11 06:44:00,41.8,36.1,30.09,NW,305,0.0,0.0,80,0.00,,---,0.00,VWS V14.01,2013-10-11 10:44:00,
2013-10-11 06:49:00,41.7,36.0,30.09,NW,305,0.0,0.0,80,0.00,,---,0.00,VWS V14.01,2013-10-11 10:49:00,
2013-10-11 06:54:00,41.8,36.5,30.09,NW,305,0.0,0.0,81,0.00,,---,0.00,VWS V14.01,2013-10-11 10:54:00,
2013-10-11 06:59:00,41.8,36.5,30.09,NW,305,0.0,0.0,81,0.00,,---,0.00,VWS V14.01,2013-10-11 10:59:00,
2013-10-11 07:04:00,41.7,36.3,30.09,NW,305,0.0,0.0,81,0.00,,---,0.00,VWS V14.01,2013-10-11 11:04:00,
2013-10-11 07:09:00,41.7,36.0,30.09,NW,305,0.0,0.0,80,0.00,,---,0.00,VWS V14.01,2013-10-11 11:09:00,
2013-10-11 07:14:00,41.7,36.3,30.09,NW,305,0.0,0.0,81,0.00,,---,0.00,VWS V14.01,2013-10-11 11:14:00,
2013-10-11 07:19:00,41.7,36.3,30.09,NW,305,0.0,0.0,81,0.00,,---,0.00,VWS V14.01,2013-10-11 11:19:00,
2013-10-11 07:24:00,41.7,36.3,30.09,NW,305,0.0,0.0,81,0.00,,---,0.00,VWS V14.01,2013-10-11 11:24:00,
2013-10-11 07:29:00,41.7,36.3,30.09,NW,305,0.0,0.0,81,0.00,,---,0.00,VWS V14.01,2013-10-11 11:29:00,
2013-10-11 07:34:00,41.7,36.3,30.09,NW,305,0.0,0.0,81,0.00,,---,0.00,VWS V14.01,2013-10-11 11:34:00,
2013-10-11 07:39:00,41.7,36.3,30.09,NW,305,0.0,0.0,81,0.00,,---,0.00,VWS V14.01,2013-10-11 11:39:00,
2013-10-11 07:44:00,41.5,36.1,30.09,NW,305,0.0,0.0,81,0.00,,---,0.00,VWS V14.01,2013-10-11 11:44:00,
2013-10-11 07:49:00,41.5,36.4,30.09,NW,305,0.0,0.0,82,0.00,,---,0.00,VWS V14.01,2013-10-11 11:49:00,
2013-10-11 07:54:00,41.5,36.1,30.09,NW,305,0.0,0.0,81,0.00,,---,0.00,VWS V14.01,2013-10-11 11:54:00,
2013-10-11 07:59:00,41.5,36.1,30.09,NW,305,0.0,0.0,81,0.00,,---,0.00,VWS V14.01,2013-10-11 11:59:00,
2013-10-11 08:04:00,41.5,36.4,30.09,NW,305,0.0,0.0,82,0.00,,---,0.00,VWS V14.01,2013-10-11 12:04:00,
2013-10-11 08:09:00,41.5,36.1,30.09,NW,305,0.0,0.0,81,0.00,,---,0.00,VWS V14.01,2013-10-11 12:09:00,
2013-10-11 08:14:00,41.5,36.1,30.09,NW,305,0.0,0.0,81,0.00,,---,0.00,VWS V14.01,2013-10-11 12:14:00,
2013-10-11 08:19:00,41.5,36.4,30.09,NW,305,0.0,0.0,82,0.00,,---,0.00,VWS V14.01,2013-10-11 12:19:00,
2013-10-11 08:24:00,41.7,36.6,30.09,NW,305,0.0,0.0,82,0.00,,---,0.00,VWS V14.01,2013-10-11 12:24:00,
2013-10-11 08:29:00,41.7,36.6,30.09,NW,305,0.0,0.0,82,0.00,,---,0.00,VWS V14.01,2013-10-11 12:29:00,
2013-10-11 08:34:00,42.0,36.9,30.09,NW,305,0.0,0.0,82,0.00,,---,0.00,VWS V14.01,2013-10-11 12:34:00,
2013-10-11 08:39:00,42.2,37.1,30.09,NW,305,0.0,0.0,82,0.00,,---,0.00,VWS V14.01,2013-10-11 12:39:00,
2013-10-11 08:44:00,42.6,37.8,30.09,NW,305,0.0,0.0,83,0.00,,---,0.00,VWS V14.01,2013-10-11 12:44:00,
2013-10-11 08:49:00,42.9,38.1,30.09,NW,305,0.0,0.0,83,0.00,,---,0.00,VWS V14.01,2013-10-11 12:49:00,
2013-10-11 08:54:00,43.1,38.6,30.09,NW,305,0.0,0.0,84,0.00,,---,0.00,VWS V14.01,2013-10-11 12:54:00,
2013-10-11 08:59:00,43.5,39.0,30.09,NW,305,0.0,0.0,84,0.00,,---,0.00,VWS V14.01,2013-10-11 12:59:00,
2013-10-11 09:04:00,43.8,39.6,30.09,SE,125,0.0,0.0,85,0.00,,---,0.00,VWS V14.01,2013-10-11 13:04:00,
2013-10-11 09:09:00,44.2,40.0,30.09,SE,125,0.0,0.0,85,0.00,,---,0.00,VWS V14.01,2013-10-11 13:09:00,
2013-10-11 09:14:00,44.7,40.5,30.09,SE,125,0.0,0.0,85,0.00,,---,0.00,VWS V14.01,2013-10-11 13:14:00,
2013-10-11 09:19:00,45.3,41.3,30.09,SE,125,0.0,0.0,86,0.00,,---,0.00,VWS V14.01,2013-10-11 13:19:00,
2013-10-11 09:24:00,45.6,41.7,30.09,SE,125,0.0,0.0,86,0.00,,---,0.00,VWS V14.01,2013-10-11 13:24:00,
2013-10-11 09:30:00,46.2,42.2,30.09,SE,125,0.0,0.0,86,0.00,,---,0.00,VWS V14.01,2013-10-11 13:30:00,
2013-10-11 09:35:00,46.7,42.7,30.09,ENE,58,4.0,4.0,86,0.00,,---,0.00,VWS V14.01,2013-10-11 13:35:00,
2013-10-11 09:40:00,47.8,43.8,30.09,NE,35,3.3,3.3,86,0.00,,---,0.00,VWS V14.01,2013-10-11 13:40:00,
2013-10-11 09:45:00,48.5,44.5,30.09,East,80,2.0,2.0,86,0.00,,---,0.00,VWS V14.01,2013-10-11 13:45:00,
2013-10-11 09:50:00,48.9,44.9,30.09,SE,125,4.3,5.6,86,0.00,,---,0.00,VWS V14.01,2013-10-11 13:50:00,
2013-10-11 09:55:00,49.0,45.0,30.09,ESE,102,5.3,5.6,86,0.00,,---,0.00,VWS V14.01,2013-10-11 13:55:00,
2013-10-11 10:00:00,49.6,45.6,30.09,SE,125,6.3,6.3,86,0.00,,---,0.00,VWS V14.01,2013-10-11 14:00:00,
2013-10-11 10:05:00,50.1,46.1,30.09,SE,125,3.0,3.6,86,0.00,,---,0.00,VWS V14.01,2013-10-11 14:05:00,
2013-10-11 10:10:00,50.7,46.6,30.09,SE,125,3.6,3.6,86,0.00,,---,0.00,VWS V14.01,2013-10-11 14:10:00,
2013-10-11 10:15:00,51.7,47.4,30.09,East,80,1.3,2.3,85,0.00,,---,0.00,VWS V14.01,2013-10-11 14:15:00,
2013-10-11 10:20:00,52.1,47.7,30.09,East,80,1.3,2.0,85,0.00,,---,0.00,VWS V14.01,2013-10-11 14:20:00,
2013-10-11 10:25:00,52.8,48.4,30.09,NE,35,3.0,3.0,85,0.00,,---,0.00,VWS V14.01,2013-10-11 14:25:00,
2013-10-11 10:30:00,53.0,48.3,30.09,NE,35,1.7,2.0,84,0.00,,---,0.00,VWS V14.01,2013-10-11 14:30:00,
2013-10-11 10:35:00,53.7,49.0,30.09,ESE,102,4.6,7.3,84,0.00,,---,0.00,VWS V14.01,2013-10-11 14:35:00,
2013-10-11 10:40:00,54.3,49.2,30.09,WSW,238,1.7,1.7,83,0.00,,---,0.00,VWS V14.01,2013-10-11 14:40:00,
2013-10-11 10:45:00,54.6,49.6,30.09,NE,35,1.7,1.7,83,0.00,,---,0.00,VWS V14.01,2013-10-11 14:45:00,
2013-10-11 10:50:00,55.0,49.6,30.09,SE,125,3.0,3.0,82,0.00,,---,0.00,VWS V14.01,2013-10-11 14:50:00,
2013-10-11 10:55:00,55.7,50.3,30.09,East,80,0.0,1.7,82,0.00,,---,0.00,VWS V14.01,2013-10-11 14:55:00,
2013-10-11 11:00:00,55.9,50.1,30.09,SE,125,2.3,2.3,81,0.00,,---,0.00,VWS V14.01,2013-10-11 15:00:00,
2013-10-11 11:05:00,56.4,50.3,30.09,East,80,2.3,3.3,80,0.00,,---,0.00,VWS V14.01,2013-10-11 15:05:00,
2013-10-11 11:10:00,56.8,50.3,30.09,ESE,102,2.0,3.6,79,0.00,,---,0.00,VWS V14.01,2013-10-11 15:10:00,
2013-10-11 11:15:00,57.3,50.9,30.09,West,260,4.6,4.6,79,0.00,,---,0.00,VWS V14.01,2013-10-11 15:15:00,
2013-10-11 11:20:00,57.7,50.9,30.09,SE,125,6.0,6.0,78,0.00,,---,0.00,VWS V14.01,2013-10-11 15:20:00,
2013-10-11 11:25:00,58.2,51.0,30.09,SE,125,4.3,4.3,77,0.00,,---,0.00,VWS V14.01,2013-10-11 15:25:00,
2013-10-11 11:30:00,58.8,51.6,30.09,SE,125,3.3,3.3,77,0.00,,---,0.00,VWS V14.01,2013-10-11 15:30:00,
2013-10-11 11:35:00,58.9,51.4,30.09,East,80,2.0,6.0,76,0.00,,---,0.00,VWS V14.01,2013-10-11 15:35:00,
2013-10-11 11:40:00,60.0,51.3,30.09,SE,125,1.7,4.6,73,0.00,,---,0.00,VWS V14.01,2013-10-11 15:40:00,
2013-10-11 11:45:00,60.7,51.3,30.09,SE,125,4.0,4.3,71,0.00,,---,0.00,VWS V14.01,2013-10-11 15:45:00,
2013-10-11 11:50:00,62.4,52.5,30.09,SE,125,4.0,5.3,70,0.00,,---,0.00,VWS V14.01,2013-10-11 15:50:00,
2013-10-11 11:55:00,63.4,53.1,30.09,East,80,5.3,8.6,69,0.00,,---,0.00,VWS V14.01,2013-10-11 15:55:00,
2013-10-11 12:00:00,63.8,52.2,30.09,North,350,4.0,4.0,66,0.00,,---,0.00,VWS V14.01,2013-10-11 16:00:00,
2013-10-11 12:05:00,64.2,53.0,30.09,West,260,3.6,6.3,67,0.00,,---,0.00,VWS V14.01,2013-10-11 16:05:00,
2013-10-11 12:10:00,64.0,52.4,30.09,North,350,3.3,4.3,66,0.00,,---,0.00,VWS V14.01,2013-10-11 16:10:00,
2013-10-11 12:15:00,64.9,53.7,30.09,SE,125,7.3,7.3,67,0.00,,---,0.00,VWS V14.01,2013-10-11 16:15:00,
2013-10-11 12:20:00,64.3,52.3,30.09,SE,125,2.0,3.3,65,0.00,,---,0.00,VWS V14.01,2013-10-11 16:20:00,
2013-10-11 12:26:00,64.7,53.5,30.09,SE,125,5.6,5.6,67,0.00,,---,0.00,VWS V14.01,2013-10-11 16:26:00,
2013-10-11 12:31:00,64.9,51.1,30.09,NE,35,5.0,5.0,61,0.00,,---,0.00,VWS V14.01,2013-10-11 16:31:00,
2013-10-11 12:36:00,65.6,52.2,30.09,SE,125,5.0,5.0,62,0.00,,---,0.00,VWS V14.01,2013-10-11 16:36:00,
2013-10-11 12:41:00,66.1,52.8,30.09,SE,125,5.3,5.3,62,0.00,,---,0.00,VWS V14.01,2013-10-11 16:41:00,
2013-10-11 12:46:00,67.2,53.3,30.09,SE,125,3.0,6.0,61,0.00,,---,0.00,VWS V14.01,2013-10-11 16:46:00,
2013-10-11 12:51:00,67.9,52.6,30.09,SE,125,3.6,5.0,58,0.00,,---,0.00,VWS V14.01,2013-10-11 16:51:00,
2013-10-11 12:56:00,68.3,52.0,30.09,East,80,5.3,5.3,56,0.00,,---,0.00,VWS V14.01,2013-10-11 16:56:00,
2013-10-11 13:01:00,67.8,51.0,30.09,SW,215,0.0,2.3,55,0.00,,---,0.00,VWS V14.01,2013-10-11 17:01:00,
2013-10-11 13:06:00,68.5,51.2,30.09,SW,215,2.3,2.3,54,0.00,,---,0.00,VWS V14.01,2013-10-11 17:06:00,
2013-10-11 13:11:00,68.1,49.8,30.09,SE,125,4.3,4.3,52,0.00,,---,0.00,VWS V14.01,2013-10-11 17:11:00,
2013-10-11 13:16:00,68.8,50.0,30.09,ENE,58,3.0,3.0,51,0.00,,---,0.00,VWS V14.01,2013-10-11 17:16:00,
2013-10-11 13:21:00,69.6,49.0,30.09,SE,125,4.0,4.0,48,0.00,,---,0.00,VWS V14.01,2013-10-11 17:21:00,
2013-10-11 13:26:00,70.8,50.2,30.06,West,260,2.0,3.0,48,0.00,,---,0.00,VWS V14.01,2013-10-11 17:26:00,
2013-10-11 13:31:00,71.5,50.3,30.06,SE,125,3.6,5.3,47,0.00,,---,0.00,VWS V14.01,2013-10-11 17:31:00,
2013-10-11 13:36:00,72.1,50.2,30.06,SW,215,3.3,4.0,46,0.00,,---,0.00,VWS V14.01,2013-10-11 17:36:00,
2013-10-11 13:41:00,72.4,48.7,30.06,SW,215,0.0,3.6,43,0.00,,---,0.00,VWS V14.01,2013-10-11 17:41:00,
2013-10-11 13:46:00,72.8,49.0,30.06,SE,125,4.6,4.6,43,0.00,,---,0.00,VWS V14.01,2013-10-11 17:46:00,
2013-10-11 13:51:00,71.4,47.7,30.06,SE,125,3.0,6.0,43,0.00,,---,0.00,VWS V14.01,2013-10-11 17:51:00,
2013-10-11 13:56:00,73.5,50.3,30.06,SE,125,1.3,2.0,44,0.00,,---,0.00,VWS V14.01,2013-10-11 17:56:00,
2013-10-11 14:01:00,72.1,49.0,30.06,SE,125,6.0,6.0,44,0.00,,---,0.00,VWS V14.01,2013-10-11 18:01:00,
2013-10-11 14:06:00,72.4,49.3,30.06,SE,125,2.3,7.3,44,0.00,,---,0.00,VWS V14.01,2013-10-11 18:06:00,
2013-10-11 14:11:00,71.5,48.5,30.06,ENE,58,3.6,3.6,44,0.00,,---,0.00,VWS V14.01,2013-10-11 18:11:00,
2013-10-11 14:16:00,72.6,49.5,30.06,North,350,3.0,3.0,44,0.00,,---,0.00,VWS V14.01,2013-10-11 18:16:00,
2013-10-11 14:21:00,71.9,48.8,30.06,SE,125,4.0,4.0,44,0.00,,---,0.00,VWS V14.01,2013-10-11 18:21:00,
2013-10-11 14:26:00,73.0,49.2,30.06,NW,305,0.0,3.6,43,0.00,,---,0.00,VWS V14.01,2013-10-11 18:26:00,
2013-10-11 14:31:00,74.1,50.8,30.06,West,260,3.6,3.6,44,0.00,,---,0.00,VWS V14.01,2013-10-11 18:31:00,
2013-10-11 14:36:00,73.3,48.9,30.06,SE,125,3.6,3.6,42,0.00,,---,0.00,VWS V14.01,2013-10-11 18:36:00,
2013-10-11 14:41:00,73.9,49.4,30.06,North,350,1.3,3.6,42,0.00,,---,0.00,VWS V14.01,2013-10-11 18:41:00,
2013-10-11 14:46:00,73.3,48.9,30.06,NW,305,1.3,1.3,42,0.00,,---,0.00,VWS V14.01,2013-10-11 18:46:00,
2013-10-11 14:51:00,74.2,49.7,30.06,North,350,2.0,2.0,42,0.00,,---,0.00,VWS V14.01,2013-10-11 18:51:00,
2013-10-11 14:56:00,74.4,49.9,30.03,SE,125,3.6,3.6,42,0.00,,---,0.00,VWS V14.01,2013-10-11 18:56:00,
2013-10-11 15:01:00,73.3,48.9,30.03,East,80,4.6,4.6,42,0.00,,---,0.00,VWS V14.01,2013-10-11 19:01:00,
2013-10-11 15:06:00,75.0,50.3,30.03,SW,215,3.3,4.3,42,0.00,,---,0.00,VWS V14.01,2013-10-11 19:06:00,
2013-10-11 15:11:00,75.1,49.8,30.03,NE,35,2.0,2.0,41,0.00,,---,0.00,VWS V14.01,2013-10-11 19:11:00,
2013-10-11 15:16:00,75.1,49.8,30.03,SE,125,5.3,5.3,41,0.00,,---,0.00,VWS V14.01,2013-10-11 19:16:00,
2013-10-11 15:22:00,74.4,49.9,30.03,NW,305,6.0,6.0,42,0.00,,---,0.00,VWS V14.01,2013-10-11 19:22:00,
2013-10-11 15:27:00,74.2,48.4,30.03,SE,125,3.0,3.3,40,0.00,,---,0.00,VWS V14.01,2013-10-11 19:27:00,
2013-10-11 15:32:00,74.1,48.2,30.03,SE,125,4.3,4.3,40,0.00,,---,0.00,VWS V14.01,2013-10-11 19:32:00,
2013-10-11 15:37:00,74.6,48.7,30.03,SE,125,8.3,8.3,40,0.00,,---,0.00,VWS V14.01,2013-10-11 19:37:00,
2013-10-11 15:42:00,73.7,47.2,30.03,SE,125,3.0,5.3,39,0.00,,---,0.00,VWS V14.01,2013-10-11 19:42:00,
2013-10-11 15:47:00,73.0,45.9,30.03,West,260,2.3,5.6,38,0.00,,---,0.00,VWS V14.01,2013-10-11 19:47:00,
2013-10-11 15:52:00,72.6,46.3,30.03,SE,125,2.3,4.0,39,0.00,,---,0.00,VWS V14.01,2013-10-11 19:52:00,
2013-10-11 15:57:00,72.4,45.4,30.03,SE,125,3.0,5.0,38,0.00,,---,0.00,VWS V14.01,2013-10-11 19:57:00,
2013-10-11 16:02:00,71.9,44.9,30.03,SE,125,5.0,5.0,38,0.00,,---,0.00,VWS V14.01,2013-10-11 20:02:00,
2013-10-11 16:07:00,71.7,44.8,30.03,SE,125,3.6,6.0,38,0.00,,---,0.00,VWS V14.01,2013-10-11 20:07:00,
2013-10-11 16:12:00,71.5,44.6,30.03,North,350,0.0,1.3,38,0.00,,---,0.00,VWS V14.01,2013-10-11 20:12:00,
2013-10-11 16:17:00,71.7,46.1,30.03,SE,125,3.0,4.0,40,0.00,,---,0.00,VWS V14.01,2013-10-11 20:17:00,
2013-10-11 16:22:00,71.4,46.5,30.03,SE,125,1.7,2.3,41,0.00,,---,0.00,VWS V14.01,2013-10-11 20:22:00,
2013-10-11 16:27:00,71.4,45.8,30.03,SE,125,4.3,9.3,40,0.00,,---,0.00,VWS V14.01,2013-10-11 20:27:00,
2013-10-11 16:32:00,71.4,45.8,30.03,SW,215,3.0,3.0,40,0.00,,---,0.00,VWS V14.01,2013-10-11 20:32:00,
2013-10-11 16:37:00,71.2,45.7,30.03,SE,125,3.0,3.3,40,0.00,,---,0.00,VWS V14.01,2013-10-11 20:37:00,
2013-10-11 16:42:00,71.0,45.5,30.03,East,80,4.0,4.0,40,0.00,,---,0.00,VWS V14.01,2013-10-11 20:42:00,
2013-10-11 16:47:00,70.8,46.0,30.03,SE,125,5.6,5.6,41,0.00,,---,0.00,VWS V14.01,2013-10-11 20:47:00,
2013-10-11 16:52:00,70.6,45.8,30.00,ESE,102,3.6,5.6,41,0.00,,---,0.00,VWS V14.01,2013-10-11 20:52:00,
2013-10-11 16:57:00,70.6,45.2,30.00,SE,125,1.7,3.3,40,0.00,,---,0.00,VWS V14.01,2013-10-11 20:57:00,
2013-10-11 17:02:00,70.5,45.0,30.00,SE,125,3.3,3.3,40,0.00,,---,0.00,VWS V14.01,2013-10-11 21:02:00,
2013-10-11 17:07:00,70.3,44.8,30.00,SE,125,4.0,4.0,40,0.00,,---,0.00,VWS V14.01,2013-10-11 21:07:00,
2013-10-11 17:12:00,69.7,45.0,30.00,SE,125,4.6,4.6,41,0.00,,---,0.00,VWS V14.01,2013-10-11 21:12:00,
2013-10-11 17:17:00,69.9,45.2,30.00,SE,125,5.0,5.0,41,0.00,,---,0.00,VWS V14.01,2013-10-11 21:17:00,
2013-10-11 17:22:00,69.7,45.0,30.00,SW,215,1.7,4.6,41,0.00,,---,0.00,VWS V14.01,2013-10-11 21:22:00,
2013-10-11 17:27:00,69.4,45.3,30.00,SE,125,6.3,6.3,42,0.00,,---,0.00,VWS V14.01,2013-10-11 21:27:00,
2013-10-11 17:32:00,69.4,45.3,30.00,North,350,0.0,2.0,42,0.00,,---,0.00,VWS V14.01,2013-10-11 21:32:00,
2013-10-11 17:37:00,69.4,45.3,30.00,SE,125,4.0,4.0,42,0.00,,---,0.00,VWS V14.01,2013-10-11 21:37:00,
2013-10-11 17:42:00,68.7,45.3,30.00,SE,125,4.0,4.0,43,0.00,,---,0.00,VWS V14.01,2013-10-11 21:42:00,
2013-10-11 17:47:00,68.7,45.3,30.00,ESE,102,3.6,3.6,43,0.00,,---,0.00,VWS V14.01,2013-10-11 21:47:00,
2013-10-11 17:52:00,68.7,45.3,30.00,ESE,102,2.3,3.6,43,0.00,,---,0.00,VWS V14.01,2013-10-11 21:52:00,
2013-10-11 17:57:00,68.1,45.4,30.00,SE,125,5.3,5.3,44,0.00,,---,0.00,VWS V14.01,2013-10-11 21:57:00,
2013-10-11 18:02:00,67.9,45.2,30.00,SE,125,0.0,0.0,44,0.00,,---,0.00,VWS V14.01,2013-10-11 22:02:00,
2013-10-11 18:07:00,67.8,44.5,30.00,SE,125,1.7,1.7,43,0.00,,---,0.00,VWS V14.01,2013-10-11 22:07:00,
2013-10-11 18:12:00,67.6,44.9,30.00,East,80,0.0,4.0,44,0.00,,---,0.00,VWS V14.01,2013-10-11 22:12:00,
2013-10-11 18:18:00,67.2,44.6,30.00,SE,125,2.0,2.0,44,0.00,,---,0.00,VWS V14.01,2013-10-11 22:18:00,
2013-10-11 18:23:00,66.9,44.3,30.00,SE,125,1.3,4.0,44,0.00,,---,0.00,VWS V14.01,2013-10-11 22:23:00,
2013-10-11 18:28:00,66.5,44.5,30.00,SE,125,3.3,3.3,45,0.00,,---,0.00,VWS V14.01,2013-10-11 22:28:00,
2013-10-11 18:33:00,66.3,44.4,30.00,SE,125,0.0,0.0,45,0.00,,---,0.00,VWS V14.01,2013-10-11 22:33:00,
2013-10-11 18:38:00,66.0,44.0,30.00,SE,125,0.0,0.0,45,0.00,,---,0.00,VWS V14.01,2013-10-11 22:38:00,
2013-10-11 18:43:00,65.8,43.9,30.00,SE,125,0.0,0.0,45,0.00,,---,0.00,VWS V14.01,2013-10-11 22:43:00,
2013-10-11 18:48:00,65.2,44.0,30.00,SE,125,0.0,0.0,46,0.00,,---,0.00,VWS V14.01,2013-10-11 22:48:00,
2013-10-11 18:53:00,64.9,44.2,30.00,SE,125,0.0,0.0,47,0.00,,---,0.00,VWS V14.01,2013-10-11 22:53:00,
2013-10-11 18:58:00,64.3,43.7,30.00,SE,125,0.0,0.0,47,0.00,,---,0.00,VWS V14.01,2013-10-11 22:58:00,
2013-10-11 19:03:00,64.0,43.9,30.00,SE,125,0.0,0.0,48,0.00,,---,0.00,VWS V14.01,2013-10-11 23:03:00,
2013-10-11 19:08:00,63.6,44.1,30.00,SE,125,0.0,0.0,49,0.00,,---,0.00,VWS V14.01,2013-10-11 23:08:00,
2013-10-11 19:13:00,63.3,43.8,30.00,SE,125,0.0,0.0,49,0.00,,---,0.00,VWS V14.01,2013-10-11 23:13:00,
2013-10-11 19:18:00,63.1,43.6,30.00,SE,125,0.0,0.0,49,0.00,,---,0.00,VWS V14.01,2013-10-11 23:18:00,
2013-10-11 19:23:00,62.5,43.7,30.00,SE,125,0.0,0.0,50,0.00,,---,0.00,VWS V14.01,2013-10-11 23:23:00,
2013-10-11 19:28:00,62.0,43.2,30.00,SE,125,0.0,0.0,50,0.00,,---,0.00,VWS V14.01,2013-10-11 23:28:00,
2013-10-11 19:33:00,61.5,44.2,30.00,SE,125,0.0,0.0,53,0.00,,---,0.00,VWS V14.01,2013-10-11 23:33:00,
2013-10-11 19:38:00,61.1,43.4,30.00,SE,125,0.0,0.0,52,0.00,,---,0.00,VWS V14.01,2013-10-11 23:38:00,
2013-10-11 19:43:00,60.7,43.0,30.00,SE,125,0.0,0.0,52,0.00,,---,0.00,VWS V14.01,2013-10-11 23:43:00,
2013-10-11 19:48:00,60.6,43.4,30.00,SE,125,0.0,0.0,53,0.00,,---,0.00,VWS V14.01,2013-10-11 23:48:00,
2013-10-11 19:53:00,60.2,43.0,30.00,SE,125,0.0,0.0,53,0.00,,---,0.00,VWS V14.01,2013-10-11 23:53:00,
2013-10-11 19:58:00,60.2,43.0,30.00,SE,125,0.0,0.0,53,0.00,,---,0.00,VWS V14.01,2013-10-11 23:58:00,
2013-10-11 20:03:00,59.8,43.2,30.00,SE,125,0.0,0.0,54,0.00,,---,0.00,VWS V14.01,2013-10-12 00:03:00,
2013-10-11 20:08:00,59.1,43.0,30.00,SE,125,0.0,0.0,55,0.00,,---,0.00,VWS V14.01,2013-10-12 00:08:00,
2013-10-11 20:13:00,58.9,43.3,30.00,SE,125,0.0,0.0,56,0.00,,---,0.00,VWS V14.01,2013-10-12 00:13:00,
2013-10-11 20:18:00,58.8,43.1,30.00,SE,125,0.0,0.0,56,0.00,,---,0.00,VWS V14.01,2013-10-12 00:18:00,
2013-10-11 20:23:00,58.6,43.4,30.00,SE,125,0.0,0.0,57,0.00,,---,0.00,VWS V14.01,2013-10-12 00:23:00,
2013-10-11 20:28:00,58.2,43.5,30.00,SE,125,0.0,0.0,58,0.00,,---,0.00,VWS V14.01,2013-10-12 00:28:00,
2013-10-11 20:33:00,58.2,43.5,30.00,SE,125,0.0,0.0,58,0.00,,---,0.00,VWS V14.01,2013-10-12 00:33:00,
2013-10-11 20:38:00,58.2,43.5,30.00,SE,125,0.0,0.0,58,0.00,,---,0.00,VWS V14.01,2013-10-12 00:38:00,
2013-10-11 20:43:00,58.2,43.5,30.00,SE,125,0.0,0.0,58,0.00,,---,0.00,VWS V14.01,2013-10-12 00:43:00,
2013-10-11 20:48:00,58.2,43.5,30.00,SE,125,0.0,0.0,58,0.00,,---,0.00,VWS V14.01,2013-10-12 00:48:00,
2013-10-11 20:53:00,57.1,43.8,30.00,SE,125,0.0,0.0,61,0.00,,---,0.00,VWS V14.01,2013-10-12 00:53:00,
2013-10-11 20:58:00,57.0,43.7,30.00,SE,125,0.0,0.0,61,0.00,,---,0.00,VWS V14.01,2013-10-12 00:58:00,
2013-10-11 21:03:00,56.8,44.3,30.00,SE,125,0.0,0.0,63,0.00,,---,0.00,VWS V14.01,2013-10-12 01:03:00,
2013-10-11 21:08:00,56.8,43.9,30.00,SE,125,0.0,0.0,62,0.00,,---,0.00,VWS V14.01,2013-10-12 01:08:00,
2013-10-11 21:13:00,56.8,43.9,30.00,SE,125,0.0,0.0,62,0.00,,---,0.00,VWS V14.01,2013-10-12 01:13:00,
2013-10-11 21:19:00,56.4,44.4,30.00,East,80,0.0,0.0,64,0.00,,---,0.00,VWS V14.01,2013-10-12 01:19:00,
2013-10-11 21:24:00,56.4,44.4,30.00,East,80,0.0,0.0,64,0.00,,---,0.00,VWS V14.01,2013-10-12 01:24:00,
2013-10-11 21:29:00,56.2,43.8,30.00,East,80,0.0,0.0,63,0.00,,---,0.00,VWS V14.01,2013-10-12 01:29:00,
2013-10-11 21:34:00,56.2,43.8,30.00,NE,35,0.0,0.0,63,0.00,,---,0.00,VWS V14.01,2013-10-12 01:34:00,
2013-10-11 21:39:00,56.1,44.1,30.00,NE,35,0.0,0.0,64,0.00,,---,0.00,VWS V14.01,2013-10-12 01:39:00,
2013-10-11 21:44:00,56.1,44.1,30.00,NE,35,0.0,0.0,64,0.00,,---,0.00,VWS V14.01,2013-10-12 01:44:00,
2013-10-11 21:49:00,56.1,44.1,30.00,NE,35,0.0,0.0,64,0.00,,---,0.00,VWS V14.01,2013-10-12 01:49:00,
2013-10-11 21:54:00,56.1,44.1,30.00,NE,35,0.0,0.0,64,0.00,,---,0.00,VWS V14.01,2013-10-12 01:54:00,
2013-10-11 21:59:00,55.3,44.6,30.00,West,260,0.0,0.0,67,0.00,,---,0.00,VWS V14.01,2013-10-12 01:59:00,
2013-10-11 22:04:00,55.3,44.6,30.00,ENE,58,0.0,0.0,67,0.00,,---,0.00,VWS V14.01,2013-10-12 02:04:00,
2013-10-11 22:09:00,55.3,44.6,30.00,East,80,0.0,0.0,67,0.00,,---,0.00,VWS V14.01,2013-10-12 02:09:00,
2013-10-11 22:14:00,55.2,44.8,30.00,SE,125,0.0,0.0,68,0.00,,---,0.00,VWS V14.01,2013-10-12 02:14:00,
2013-10-11 22:19:00,55.2,44.8,30.00,East,80,0.0,1.3,68,0.00,,---,0.00,VWS V14.01,2013-10-12 02:19:00,
2013-10-11 22:24:00,54.8,44.5,30.00,ESE,102,6.3,6.3,68,0.00,,---,0.00,VWS V14.01,2013-10-12 02:24:00,
2013-10-11 22:29:00,54.8,44.5,30.00,SE,125,3.0,4.0,68,0.00,,---,0.00,VWS V14.01,2013-10-12 02:29:00,
2013-10-11 22:34:00,54.8,44.5,30.00,East,80,3.6,3.6,68,0.00,,---,0.00,VWS V14.01,2013-10-12 02:34:00,
2013-10-11 22:39:00,55.2,44.8,30.00,SE,125,5.0,5.0,68,0.00,,---,0.00,VWS V14.01,2013-10-12 02:39:00,
2013-10-11 22:44:00,55.3,45.4,30.00,ESE,102,5.0,5.0,69,0.00,,---,0.00,VWS V14.01,2013-10-12 02:44:00,
2013-10-11 22:49:00,55.3,45.4,30.00,SE,125,5.3,5.3,69,0.00,,---,0.00,VWS V14.01,2013-10-12 02:49:00,
2013-10-11 22:54:00,55.9,45.9,30.00,SE,125,1.3,4.3,69,0.00,,---,0.00,VWS V14.01,2013-10-12 02:54:00,
2013-10-11 22:59:00,56.1,46.0,30.00,SE,125,4.0,4.0,69,0.00,,---,0.00,VWS V14.01,2013-10-12 02:59:00,
2013-10-11 23:04:00,56.2,46.2,30.00,SE,125,2.0,5.0,69,0.00,,---,0.00,VWS V14.01,2013-10-12 03:04:00,
2013-10-11 23:09:00,56.4,46.4,30.00,SE,125,2.3,3.6,69,0.00,,---,0.00,VWS V14.01,2013-10-12 03:09:00,
2013-10-11 23:14:00,56.4,46.4,30.00,SE,125,4.6,4.6,69,0.00,,---,0.00,VWS V14.01,2013-10-12 03:14:00,
2013-10-11 23:19:00,56.4,46.4,30.00,SE,125,3.0,3.0,69,0.00,,---,0.00,VWS V14.01,2013-10-12 03:19:00,
2013-10-11 23:24:00,56.6,46.6,30.00,ESE,102,4.3,6.3,69,0.00,,---,0.00,VWS V14.01,2013-10-12 03:24:00,
2013-10-11 23:29:00,56.6,46.6,30.00,SE,125,3.0,3.0,69,0.00,,---,0.00,VWS V14.01,2013-10-12 03:29:00,
2013-10-11 23:34:00,56.6,46.6,30.00,SE,125,2.3,4.3,69,0.00,,---,0.00,VWS V14.01,2013-10-12 03:34:00,
2013-10-11 23:39:00,56.6,46.6,30.00,SE,125,4.0,4.0,69,0.00,,---,0.00,VWS V14.01,2013-10-12 03:39:00,
2013-10-11 23:44:00,57.0,46.9,30.00,East,80,3.3,5.3,69,0.00,,---,0.00,VWS V14.01,2013-10-12 03:44:00,
2013-10-11 23:49:00,57.0,46.9,30.00,ESE,102,1.7,1.7,69,0.00,,---,0.00,VWS V14.01,2013-10-12 03:49:00,
2013-10-11 23:54:00,56.8,46.3,30.03,SE,125,1.7,4.0,68,0.00,,---,0.00,VWS V14.01,2013-10-12 03:54:00,
2013-10-11 23:59:00,56.6,46.2,30.03,SE,125,3.3,3.3,68,0.00,,---,0.00,VWS V14.01,2013-10-12 03:59:00,